Hourly Weather Barnkowo

Today, 18 April, Sunday

Time Temperature Precipitation Wind Pressure Humidity
00:00 +6°C° 0 mm 2 mps 763 mmHg 94%
01:00 +5°C° 0 mm 2 mps 763 mmHg 94%
02:00 +5°C° 0 mm 2 mps 763 mmHg 95%
03:00 +5°C° 0 mm 2 mps 763 mmHg 95%
04:00 +5°C° 0 mm 2 mps 763 mmHg 95%
05:00 +6°C° 0.1 mm 2 mps 763 mmHg 93%
06:00 +7°C° 0.1 mm 3 mps 763 mmHg 92%
07:00 +8°C° 0.1 mm 3 mps 763 mmHg 90%
08:00 +9°C° 0.1 mm 3 mps 763 mmHg 86%
09:00 +10°C° 0.1 mm 3 mps 763 mmHg 83%
10:00 +11°C° 0.1 mm 4 mps 763 mmHg 80%
11:00 +11°C° 0.4 mm 4 mps 762 mmHg 76%
12:00 +12°C° 0.4 mm 3 mps 762 mmHg 72%
13:00 +13°C° 0.4 mm 3 mps 762 mmHg 68%
14:00 +13°C° 0.5 mm 3 mps 762 mmHg 69%
15:00 +13°C° 0.5 mm 3 mps 762 mmHg 69%
16:00 +13°C° 0.5 mm 3 mps 762 mmHg 70%
17:00 +11°C° 0.3 mm 3 mps 762 mmHg 75%
18:00 +10°C° 0.3 mm 3 mps 762 mmHg 80%
19:00 +9°C° 0.3 mm 3 mps 762 mmHg 85%
20:00 +8°C° 0 mm 3 mps 762 mmHg 87%
21:00 +8°C° 0 mm 3 mps 763 mmHg 90%
22:00 +7°C° 0 mm 3 mps 763 mmHg 92%
23:00 +7°C° 0 mm 2 mps 763 mmHg 92%

Tomorrow, 19 April, Monday

Time Temperature Precipitation Wind Pressure Humidity
00:00 +7°C° 0 mm 2 mps 763 mmHg 93%
01:00 +7°C° 0 mm 2 mps 763 mmHg 94%
02:00 +6°C° 0 mm 2 mps 763 mmHg 93%
03:00 +6°C° 0 mm 2 mps 763 mmHg 93%
04:00 +6°C° 0 mm 2 mps 763 mmHg 93%
05:00 +7°C° 0 mm 2 mps 763 mmHg 91%
06:00 +7°C° 0 mm 2 mps 763 mmHg 89%
07:00 +8°C° 0 mm 2 mps 763 mmHg 87%
08:00 +9°C° 0 mm 2 mps 763 mmHg 84%
09:00 +10°C° 0 mm 2 mps 763 mmHg 82%
10:00 +10°C° 0 mm 2 mps 763 mmHg 79%
11:00 +12°C° 0 mm 2 mps 763 mmHg 78%
12:00 +13°C° 0 mm 2 mps 763 mmHg 76%
13:00 +13°C° 0 mm 2 mps 762 mmHg 74%
14:00 +14°C° 0.2 mm 2 mps 762 mmHg 71%
15:00 +15°C° 0.2 mm 2 mps 762 mmHg 68%
16:00 +16°C° 0.2 mm 3 mps 761 mmHg 65%
17:00 +13°C° 0.4 mm 3 mps 761 mmHg 73%
18:00 +11°C° 0.4 mm 3 mps 761 mmHg 80%
19:00 +10°C° 0.4 mm 3 mps 761 mmHg 88%
20:00 +9°C° 0.2 mm 2 mps 761 mmHg 89%
21:00 +9°C° 0.2 mm 2 mps 761 mmHg 90%
22:00 +8°C° 0.2 mm 2 mps 761 mmHg 91%
23:00 +8°C° 0 mm 2 mps 761 mmHg 91%

Day after tomorrow, 20 April, Tuesday

Time Temperature Precipitation Wind Pressure Humidity
00:00 +8°C° 0 mm 2 mps 760 mmHg 90%
01:00 +8°C° 0 mm 2 mps 760 mmHg 89%
02:00 +9°C° 0 mm 1 mps 760 mmHg 89%
03:00 +9°C° 0 mm 1 mps 760 mmHg 88%
04:00 +8°C° 0 mm 1 mps 760 mmHg 88%
05:00 +9°C° 0 mm 1 mps 760 mmHg 87%
06:00 +9°C° 0 mm 1 mps 760 mmHg 86%
07:00 +10°C° 0 mm 1 mps 760 mmHg 85%
08:00 +11°C° 0 mm 1 mps 760 mmHg 81%
09:00 +12°C° 0 mm 2 mps 760 mmHg 77%
10:00 +13°C° 0 mm 2 mps 760 mmHg 72%
11:00 +14°C° 0.2 mm 2 mps 759 mmHg 66%
12:00 +15°C° 0.2 mm 1 mps 759 mmHg 60%
13:00 +16°C° 0.2 mm 1 mps 759 mmHg 54%
14:00 +16°C° 0.3 mm 1 mps 758 mmHg 54%
15:00 +16°C° 0.3 mm 1 mps 758 mmHg 55%
16:00 +16°C° 0.3 mm 1 mps 758 mmHg 55%
17:00 +14°C° 0.4 mm 1 mps 758 mmHg 62%
18:00 +13°C° 0.4 mm 1 mps 758 mmHg 69%
19:00 +11°C° 0.4 mm 1 mps 758 mmHg 76%
20:00 +11°C° 0.1 mm 1 mps 757 mmHg 78%
21:00 +11°C° 0.1 mm 1 mps 757 mmHg 80%
22:00 +11°C° 0.1 mm 1 mps 757 mmHg 81%
23:00 +10°C° 0.1 mm 1 mps 757 mmHg 84%

21 April, Wednesday

Time Temperature Precipitation Wind Pressure Humidity
00:00 +9°C° 0.1 mm 2 mps 757 mmHg 87%
01:00 +8°C° 0.1 mm 2 mps 757 mmHg 89%
02:00 +7°C° 0 mm 2 mps 756 mmHg 91%
03:00 +7°C° 0 mm 2 mps 756 mmHg 93%
04:00 +6°C° 0 mm 2 mps 756 mmHg 95%
05:00 +7°C° 0 mm 3 mps 756 mmHg 92%
06:00 +7°C° 0 mm 3 mps 756 mmHg 90%
07:00 +8°C° 0 mm 3 mps 756 mmHg 88%
08:00 +8°C° 0 mm 4 mps 756 mmHg 80%
09:00 +10°C° 0 mm 4 mps 756 mmHg 71%
10:00 +12°C° 0 mm 4 mps 756 mmHg 62%
11:00 +12°C° 0 mm 4 mps 756 mmHg 59%
12:00 +13°C° 0 mm 4 mps 756 mmHg 55%
13:00 +13°C° 0 mm 5 mps 756 mmHg 52%
14:00 +10°C° 0.4 mm 5 mps 756 mmHg 64%
15:00 +8°C° 0.4 mm 5 mps 756 mmHg 77%
16:00 +5°C° 0.4 mm 6 mps 756 mmHg 89%
17:00 +6°C° 0.3 mm 5 mps 757 mmHg 86%
18:00 +5°C° 0.3 mm 4 mps 757 mmHg 84%
19:00 +5°C° 0.3 mm 3 mps 757 mmHg 82%
20:00 +4°C° 0.1 mm 3 mps 757 mmHg 84%
21:00 +3°C° 0.1 mm 3 mps 758 mmHg 86%
22:00 +1°C° 0.1 mm 4 mps 758 mmHg 87%
23:00 +1°C° 0 mm 4 mps 758 mmHg 89%

22 April, Thursday

Time Temperature Precipitation Wind Pressure Humidity
00:00 0°C° 0 mm 4 mps 758 mmHg 90%
01:00 0°C° 0 mm 4 mps 758 mmHg 91%
02:00 -1°C° 0 mm 4 mps 758 mmHg 91%
03:00 -1°C° 0 mm 4 mps 758 mmHg 91%
04:00 -1°C° 0 mm 4 mps 758 mmHg 91%
05:00 -1°C° 0 mm 4 mps 759 mmHg 89%
06:00 0°C° 0 mm 4 mps 759 mmHg 86%
07:00 +1°C° 0 mm 5 mps 759 mmHg 83%
08:00 +1°C° 0.1 mm 5 mps 759 mmHg 84%
09:00 +3°C° 0.1 mm 4 mps 760 mmHg 84%
10:00 +3°C° 0.1 mm 4 mps 760 mmHg 84%
11:00 +3°C° 0.1 mm 4 mps 760 mmHg 84%
12:00 +3°C° 0.1 mm 3 mps 761 mmHg 84%
13:00 +4°C° 0.1 mm 3 mps 761 mmHg 83%
14:00 +5°C° 0 mm 2 mps 761 mmHg 80%
15:00 +6°C° 0 mm 2 mps 762 mmHg 76%
16:00 +6°C° 0 mm 2 mps 762 mmHg 72%
17:00 +6°C° 0 mm 2 mps 762 mmHg 75%
18:00 +5°C° 0 mm 2 mps 763 mmHg 78%
19:00 +4°C° 0 mm 2 mps 763 mmHg 81%
20:00 +4°C° 0 mm 2 mps 764 mmHg 84%
21:00 +4°C° 0 mm 2 mps 764 mmHg 86%
22:00 +3°C° 0 mm 2 mps 764 mmHg 89%
23:00 +3°C° 0 mm 2 mps 765 mmHg 89%

23 April, Friday

Time Temperature Precipitation Wind Pressure Humidity
00:00 +3°C° 0 mm 2 mps 765 mmHg 89%
01:00 +3°C° 0 mm 2 mps 765 mmHg 89%
02:00 +3°C° 0 mm 2 mps 765 mmHg 89%
03:00 +3°C° 0 mm 2 mps 766 mmHg 88%
04:00 +2°C° 0 mm 2 mps 766 mmHg 88%
05:00 +2°C° 0 mm 3 mps 766 mmHg 85%
06:00 +2°C° 0 mm 3 mps 767 mmHg 82%
07:00 +3°C° 0 mm 3 mps 767 mmHg 78%
08:00 +5°C° 0 mm 3 mps 767 mmHg 73%
09:00 +6°C° 0 mm 4 mps 767 mmHg 67%
10:00 +8°C° 0 mm 4 mps 768 mmHg 61%
11:00 +8°C° 0.3 mm 4 mps 768 mmHg 59%
12:00 +8°C° 0.3 mm 4 mps 768 mmHg 57%
13:00 +10°C° 0.3 mm 4 mps 768 mmHg 55%
14:00 +10°C° 0.4 mm 4 mps 768 mmHg 57%
15:00 +9°C° 0.4 mm 5 mps 768 mmHg 60%
16:00 +9°C° 0.4 mm 5 mps 768 mmHg 63%
17:00 +7°C° 0.1 mm 5 mps 768 mmHg 69%
18:00 +6°C° 0.1 mm 5 mps 769 mmHg 75%
19:00 +5°C° 0.1 mm 5 mps 769 mmHg 81%
20:00 +3°C° 0 mm 5 mps 769 mmHg 85%
21:00 +3°C° 0 mm 4 mps 769 mmHg 88%
22:00 +1°C° 0 mm 4 mps 770 mmHg 92%
23:00 +1°C° 0.1 mm 4 mps 770 mmHg 92%
Show more